Location: Bussy-Saint-Georges
(48.8410°N, 2.7017°E)
Time: 03:40:30
(UTC+00:00)

OPS 6432 - Pass Details

Date: 18 October 2021
Orbit: 369 x 1711 km, 63.3° (Epoch: 13 June)

Event Time Altitude Azimuth Distance (km) Brightness Sun altitude
Rises 18:20:03 0° 317° (NW) 2,230 8.7 -15.0°
Reaches altitude 10° 18:21:58 10° 315° (NW) 1,395 7.6 -15.3°
Maximum altitude 18:24:55 73° 230° (SW) 430 4.3 -15.8°
Enters shadow 18:26:58 22° 148° (SSE) 1,032 5.9 -16.1°
